{"data":{"norad_id":64276,"epoch":"2026-05-25T04:57:50.471424Z","epoch_age_seconds":47247,"freshness":"FRESH","line1":"1 64276U 25120W   26145.20683416  .00023974  00000+0  69586-3 0  9994","line2":"2 64276  53.1594 118.9775 0001444  87.8856 272.2312 15.35405363 55663","mean_motion":15.35405363,"eccentricity":0.0001444,"inclination_deg":53.1594,"raan_deg":118.9775,"arg_perigee_deg":87.8856,"mean_anomaly_deg":272.2312,"bstar":0.00069586,"rev_number":5566,"period_min":93.786307818178,"perigee_km":458.72933404303,"apogee_km":460.7041061974,"semimajor_km":6837.8537201202,"source":"CELESTRAK","updated_at":"2026-05-25T13:38:20.362276Z"}}